This demonstration page uses our WeatherBlox Daily Observations layout. Learn more.

Left ArrowRight Arrow

38.20091, -84.87328

Hourly Observations for January 29, 2015

Temp ( °F °C ) Dew Point ( °F °C ) Humidity (%) Winds ( mph kmh ) Pressure ( in mb ) Visibility ( mi km ) Precip ( " mm )
12:53 am 00:53 Clear 33 0.6 20 -6.7 58 58 SE 9 15 30.11 1020 10 16 0.00 0.00
1:53 am 01:53 Clear 33 0.6 20 -6.7 58 58 SE 8 13 30.10 1019 10 16 0.00 0.00
2:53 am 02:53 Clear 34 1.1 19 -7.2 54 54 SSE 8 13 30.06 1018 10 16 0.00 0.00
3:53 am 03:53 Clear 35 1.7 18 -7.8 50 50 SSE 8 13 30.04 1017 10 16 0.00 0.00
4:53 am 04:53 Cloudy 37 2.8 18 -7.8 46 46 S 9 15 30.01 1016 10 16 0.00 0.00
5:53 am 05:53 Cloudy with Rain 37 2.8 25 -3.9 62 62 S 9 15 29.99 1016 8 13 0.01 0.25
6:53 am 06:53 Cloudy with Light Rain 40 4.4 29 -1.7 65 65 S 16 26 29.94 1014 10 16 0.03 0.76
7:53 am 07:53 Cloudy 40 4.4 31 -0.6 70 70 S 14 22 29.93 1013 10 16 0.02 0.51
8:53 am 08:53 Partly Cloudy 42 5.6 32 0 68 68 SSW 13 20 29.93 1014 10 16 0.00 0.00
9:53 am 09:53 Mostly Sunny 46 7.8 33 0.6 61 61 SSW 17 28 29.92 1013 10 16 0.00 0.00
10:53 am 10:53 Cloudy 49 9.4 35 1.7 59 59 SW 18 30 29.91 1013 10 16 0.00 0.00
11:53 am 11:53 Cloudy 52 11.1 37 2.8 57 57 SW 22 35 29.89 1012 10 16 0.00 0.00
12:53 pm 12:53 Cloudy 53 11.7 38 3.3 57 57 WSW 22 35 29.89 1012 10 16 0.00 0.00
1:53 pm 13:53 Cloudy 51 10.6 39 3.9 64 64 W 17 28 29.90 1013 10 16 0.00 0.00
2:14 pm 14:14 Cloudy 49 9.4 37 2.8 64 64 W 15 24 29.91 1013 10 16 0.00 0.00
2:53 pm 14:53 Cloudy 47 8.3 35 1.7 63 63 W 13 20 29.95 1014 10 16 0.00 0.00
3:09 pm 15:09 Cloudy 45 7.2 34 1.1 66 66 W 22 35 29.97 1015 10 16 0.00 0.00
3:53 pm 15:53 Cloudy 43 6.1 33 0.6 68 68 WNW 18 30 30.00 1016 10 16 0.00 0.00
4:29 pm 16:29 Cloudy 41 5 33 0.6 73 73 W 17 28 30.06 1018 9 14 0.00 0.00
4:53 pm 16:53 Cloudy 40 4.4 33 0.6 77 77 W 14 22 30.05 1018 10 16 0.00 0.00
5:53 pm 17:53 Cloudy 38 3.3 32 0 79 79 WNW 13 20 30.09 1019 8 13 0.00 0.00
6:53 pm 18:53 Cloudy with Mist and Fog 36 2.2 32 0 86 86 WNW 8 13 30.13 1020 6 10 0.00 0.00
7:11 pm 19:11 Cloudy with Mist and Fog 36 2.2 32 0 86 86 W 9 15 30.15 1021 5 8 0.00 0.00
7:53 pm 19:53 Cloudy 36 2.2 31 -0.6 82 82 W 10 17 30.15 1021 9 14 0.00 0.00
8:53 pm 20:53 Cloudy 35 1.7 30 -1.1 82 82 WNW 10 17 30.18 1022 9 14 0.00 0.00
9:53 pm 21:53 Cloudy 35 1.7 29 -1.7 78 78 NW 6 9 30.21 1023 7 11 0.00 0.00
10:07 pm 22:07 Cloudy with Mist and Fog 34 1.1 30 -1.1 85 85 NW 7 11 30.27 1025 4 6 0.00 0.00
10:53 pm 22:53 Cloudy 33 0.6 30 -1.1 89 89 WNW 8 13 30.23 1024 7 11 0.01 0.25
11:53 pm 23:53 Cloudy 34 1.1 29 -1.7 82 82 W 7 11 30.24 1024 9 14 0.00 0.00

Powered by AerisWeather